| time (UTC) | temp F | wind direction | speed MPH | gust MPH | rain 1hr in | rain 24hr in | rain mn in | humidity % | barometer mb |
| 20260509223801 | 72 | 271 | 0.0 | 1.0 | 0.00 | 0.00 | 0.00 | 60 | 1004.7 |
| 20260509223258 | 71 | 252 | 2.0 | 4.0 | 0.00 | 0.00 | 0.00 | 63 | 1004.8 |
| 20260509222755 | 70 | 178 | 0.0 | 0.0 | 0.00 | 0.00 | 0.00 | 67 | 1004.7 |
| 20260509222250 | 70 | 262 | 2.0 | 3.0 | 0.00 | 0.00 | 0.00 | 65 | 1004.8 |
| 20260509221746 | 70 | 211 | 0.0 | 0.0 | 0.00 | 0.00 | 0.00 | 64 | 1004.8 |
| 20260509221243 | 70 | 239 | 3.0 | 6.0 | 0.00 | 0.00 | 0.00 | 62 | 1004.8 |
| 20260509220739 | 70 | 132 | 2.0 | 4.0 | 0.00 | 0.00 | 0.00 | 62 | 1004.9 |
| 20260509220236 | 71 | 173 | 1.0 | 3.0 | 0.00 | 0.00 | 0.00 | 60 | 1004.6 |
| 20260509215731 | 71 | 247 | 0.0 | 0.0 | 0.00 | 0.00 | 0.00 | 63 | 1004.7 |
| 20260509215228 | 72 | 234 | 4.0 | 6.0 | 0.00 | 0.00 | 0.00 | 62 | 1004.5 |
| 20260509214725 | 72 | 265 | 0.0 | 1.0 | 0.00 | 0.00 | 0.00 | 62 | 1004.5 |
| 20260509214222 | 72 | 221 | 3.0 | 7.0 | 0.00 | 0.00 | 0.00 | 62 | 1004.7 |
| 20260509213719 | 72 | 263 | 0.0 | 0.0 | 0.00 | 0.00 | 0.00 | 60 | 1004.6 |
| 20260509213214 | 71 | 254 | 4.0 | 6.0 | 0.00 | 0.00 | 0.00 | 63 | 1004.4 |
| 20260509212712 | 72 | 260 | 4.0 | 6.0 | 0.00 | 0.00 | 0.00 | 62 | 1004.5 |
| 20260509212209 | 72 | 233 | 0.0 | 0.0 | 0.00 | 0.00 | 0.00 | 63 | 1004.6 |
| 20260509211705 | 72 | 264 | 2.0 | 3.0 | 0.00 | 0.00 | 0.00 | 62 | 1004.7 |
| 20260509211202 | 72 | 148 | 2.0 | 6.0 | 0.00 | 0.00 | 0.00 | 64 | 1004.9 |
| 20260509210658 | 72 | 271 | 3.0 | 4.0 | 0.00 | 0.00 | 0.00 | 64 | 1004.7 |
| 20260509210156 | 71 | 269 | 2.0 | 3.0 | 0.00 | 0.00 | 0.00 | 63 | 1004.9 |
| 20260509205651 | 71 | 170 | 0.0 | 2.0 | 0.00 | 0.00 | 0.00 | 64 | 1004.9 |
| 20260509205150 | 71 | 211 | 2.0 | 6.0 | 0.00 | 0.00 | 0.00 | 64 | 1004.8 |
| 20260509204646 | 72 | 272 | 3.0 | 6.0 | 0.00 | 0.00 | 0.00 | 62 | 1004.6 |
| 20260509204143 | 72 | 270 | 1.0 | 2.0 | 0.00 | 0.00 | 0.00 | 63 | 1004.7 |
| 20260509203638 | 71 | 245 | 1.0 | 2.0 | 0.00 | 0.00 | 0.00 | 59 | 1004.8 |
| 20260509203132 | 71 | 263 | 8.0 | 13.0 | 0.00 | 0.00 | 0.00 | 63 | 1004.8 |
| 20260509202631 | 72 | 261 | 2.0 | 3.0 | 0.00 | 0.00 | 0.00 | 61 | 1004.6 |
| 20260509202127 | 72 | 243 | 2.0 | 2.0 | 0.00 | 0.00 | 0.00 | 58 | 1005.1 |
| 20260509201622 | 72 | 184 | 0.0 | 0.0 | 0.00 | 0.00 | 0.00 | 58 | 1004.7 |
| 20260509201120 | 72 | 289 | 1.0 | 1.0 | 0.00 | 0.00 | 0.00 | 60 | 1004.8 |
| 20260509200615 | 72 | 269 | 1.0 | 2.0 | 0.00 | 0.00 | 0.00 | 58 | 1004.6 |
| 20260509200110 | 72 | 224 | 0.0 | 0.0 | 0.00 | 0.00 | 0.00 | 62 | 1005.1 |
| 20260509195606 | 72 | 239 | 1.0 | 4.0 | 0.00 | 0.00 | 0.00 | 59 | 1004.8 |
| 20260509195056 | 72 | 255 | 0.0 | 0.0 | 0.00 | 0.00 | 0.00 | 63 | 1004.8 |
| 20260509194555 | 71 | 232 | 1.0 | 3.0 | 0.00 | 0.00 | 0.00 | 60 | 1004.7 |
| 20260509194054 | 72 | 201 | 0.0 | 0.0 | 0.00 | 0.00 | 0.00 | 65 | 1005.1 |
| 20260509193548 | 72 | 130 | 0.0 | 0.0 | 0.00 | 0.00 | 0.00 | 65 | 1005.2 |
| 20260509193044 | 71 | 151 | 0.0 | 0.0 | 0.00 | 0.00 | 0.00 | 68 | 1005.1 |
| 20260509192541 | 72 | 203 | 1.0 | 3.0 | 0.00 | 0.00 | 0.00 | 66 | 1005.3 |
| 20260509192036 | 71 | 187 | 0.0 | 0.0 | 0.00 | 0.00 | 0.00 | 67 | 1005.1 |
| 20260509191531 | 71 | 194 | 0.0 | 0.0 | 0.00 | 0.00 | 0.00 | 71 | 1004.9 |
| 20260509191027 | 71 | 198 | 0.0 | 0.0 | 0.00 | 0.00 | 0.00 | 71 | 1004.9 |
| 20260509190525 | 70 | 158 | 0.0 | 0.0 | 0.00 | 0.00 | 0.00 | 70 | 1005.1 |
| 20260509190023 | 70 | 128 | 0.0 | 0.0 | 0.00 | 0.00 | 0.00 | 72 | 1005.2 |
| 20260509185520 | 70 | 238 | 0.0 | 0.0 | 0.00 | 0.00 | 0.00 | 71 | 1005.3 |
| 20260509185016 | 70 | 229 | 0.0 | 2.0 | 0.00 | 0.00 | 0.00 | 71 | 1005.3 |
| 20260509184515 | 70 | 171 | 0.0 | 0.0 | 0.00 | 0.00 | 0.00 | 74 | 1005.2 |
| 20260509184010 | 70 | 175 | 0.0 | 0.0 | 0.00 | 0.00 | 0.00 | 72 | 1005.4 |
| 20260509183505 | 70 | 149 | 0.0 | 0.0 | 0.00 | 0.00 | 0.00 | 73 | 1005.3 |
| 20260509183001 | 69 | 168 | 0.0 | 1.0 | 0.00 | 0.00 | 0.00 | 75 | 1005.3 |
| 20260509182457 | 70 | 241 | 1.0 | 2.0 | 0.00 | 0.00 | 0.00 | 73 | 1005.4 |
| 20260509181949 | 70 | 162 | 0.0 | 0.0 | 0.00 | 0.00 | 0.00 | 74 | 1005.4 |
| 20260509181447 | 69 | 163 | 0.0 | 1.0 | 0.00 | 0.00 | 0.00 | 73 | 1005.4 |
| 20260509180944 | 69 | 251 | 3.0 | 4.0 | 0.00 | 0.00 | 0.00 | 73 | 1005.2 |
| 20260509180440 | 68 | 210 | 1.0 | 4.0 | 0.00 | 0.00 | 0.00 | 72 | 1005.2 |
| 20260509175937 | 68 | 264 | 0.0 | 3.0 | 0.00 | 0.00 | 0.00 | 73 | 1005.5 |
| 20260509175433 | 68 | 183 | 1.0 | 3.0 | 0.00 | 0.00 | 0.00 | 73 | 1005.5 |
| 20260509174930 | 68 | 241 | 1.0 | 2.0 | 0.00 | 0.00 | 0.00 | 73 | 1005.3 |
| 20260509174426 | 68 | 179 | 0.0 | 0.0 | 0.00 | 0.00 | 0.00 | 77 | 1005.4 |
| 20260509173921 | 67 | 175 | 0.0 | 0.0 | 0.00 | 0.00 | 0.00 | 75 | 1005.2 |
| 20260509173415 | 68 | 191 | 0.0 | 0.0 | 0.00 | 0.00 | 0.00 | 74 | 1005.3 |
| 20260509172912 | 68 | 160 | 0.0 | 0.0 | 0.00 | 0.00 | 0.00 | 75 | 1005.3 |
| 20260509172409 | 67 | 193 | 0.0 | 0.0 | 0.00 | 0.00 | 0.00 | 76 | 1005.7 |
| 20260509171904 | 68 | 158 | 0.0 | 0.0 | 0.00 | 0.00 | 0.00 | 77 | 1005.6 |
| 20260509171400 | 67 | 162 | 0.0 | 0.0 | 0.00 | 0.00 | 0.00 | 76 | 1005.8 |
| 20260509170852 | 67 | 242 | 0.0 | 0.0 | 0.00 | 0.00 | 0.00 | 78 | 1005.6 |
| 20260509170347 | 66 | 209 | 0.0 | 1.0 | 0.00 | 0.00 | 0.00 | 77 | 1005.6 |
| 20260509165841 | 66 | 214 | 0.0 | 0.0 | 0.00 | 0.00 | 0.00 | 78 | 1005.6 |
| 20260509165331 | 67 | 227 | 0.0 | 0.0 | 0.00 | 0.00 | 0.00 | 78 | 1005.5 |
| 20260509164827 | 66 | 216 | 0.0 | 0.0 | 0.00 | 0.00 | 0.00 | 79 | 1005.8 |
| 20260509164324 | 65 | 195 | 0.0 | 0.0 | 0.00 | 0.00 | 0.00 | 80 | 1005.6 |
| 20260509163820 | 66 | 237 | 0.0 | 1.0 | 0.00 | 0.00 | 0.00 | 78 | 1005.7 |
| 20260509163316 | 66 | 260 | 1.0 | 2.0 | 0.00 | 0.00 | 0.00 | 78 | 1005.7 |
| 20260509162815 | 65 | 158 | 0.0 | 0.0 | 0.00 | 0.00 | 0.00 | 80 | 1005.6 |
| 20260509162309 | 65 | 135 | 0.0 | 0.0 | 0.00 | 0.00 | 0.00 | 80 | 1005.8 |
| 20260509161805 | 65 | 212 | 0.0 | 0.0 | 0.00 | 0.00 | 0.00 | 80 | 1005.8 |
| 20260509161301 | 65 | 231 | 0.0 | 1.0 | 0.00 | 0.00 | 0.00 | 81 | 1005.9 |
| 20260509160757 | 65 | 231 | 0.0 | 0.0 | 0.00 | 0.00 | 0.00 | 80 | 1005.8 |
| 20260509160253 | 64 | 172 | 0.0 | 0.0 | 0.00 | 0.00 | 0.00 | 82 | 1006.0 |
| 20260509155748 | 64 | 217 | 0.0 | 1.0 | 0.00 | 0.00 | 0.00 | 80 | 1005.9 |
| 20260509155245 | 64 | 163 | 0.0 | 0.0 | 0.00 | 0.00 | 0.00 | 82 | 1006.0 |
| 20260509154741 | 63 | 140 | 0.0 | 1.0 | 0.00 | 0.00 | 0.00 | 81 | 1005.8 |
| 20260509154239 | 63 | 242 | 1.0 | 2.0 | 0.00 | 0.00 | 0.00 | 81 | 1005.9 |
| 20260509153736 | 63 | 209 | 1.0 | 2.0 | 0.00 | 0.00 | 0.00 | 80 | 1005.6 |
| 20260509153231 | 63 | 138 | 0.0 | 0.0 | 0.00 | 0.00 | 0.00 | 82 | 1005.7 |
| 20260509152727 | 62 | 167 | 0.0 | 2.0 | 0.00 | 0.00 | 0.00 | 81 | 1005.6 |
| 20260509152219 | 63 | 163 | 0.0 | 0.0 | 0.00 | 0.00 | 0.00 | 81 | 1005.3 |
| 20260509151716 | 63 | 225 | 0.0 | 1.0 | 0.00 | 0.00 | 0.00 | 82 | 1005.7 |
| 20260509151213 | 62 | 208 | 0.0 | 0.0 | 0.00 | 0.00 | 0.00 | 83 | 1005.7 |
| 20260509150710 | 62 | 161 | 0.0 | 0.0 | 0.00 | 0.00 | 0.00 | 84 | 1005.8 |
| 20260509150209 | 62 | 169 | 0.0 | 0.0 | 0.00 | 0.00 | 0.00 | 84 | 1005.6 |
| 20260509145704 | 62 | 169 | 0.0 | 0.0 | 0.00 | 0.00 | 0.00 | 84 | 1005.7 |
| 20260509145200 | 62 | 184 | 0.0 | 0.0 | 0.00 | 0.00 | 0.00 | 87 | 1005.6 |
| 20260509144656 | 61 | 235 | 1.0 | 1.0 | 0.00 | 0.00 | 0.00 | 85 | 1005.7 |
| 20260509144154 | 61 | 196 | 0.0 | 1.0 | 0.00 | 0.00 | 0.00 | 85 | 1005.5 |
| 20260509143651 | 60 | 179 | 0.0 | 0.0 | 0.00 | 0.00 | 0.00 | 85 | 1005.9 |
| 20260509143148 | 61 | 160 | 0.0 | 0.0 | 0.00 | 0.00 | 0.00 | 86 | 1005.9 |
| 20260509142644 | 60 | 115 | 0.0 | 0.0 | 0.00 | 0.00 | 0.00 | 87 | 1005.9 |
| 20260509142141 | 60 | 247 | 0.0 | 0.0 | 0.00 | 0.00 | 0.00 | 85 | 1005.9 |
| 20260509141636 | 60 | 237 | 0.0 | 0.0 | 0.00 | 0.00 | 0.00 | 85 | 1006.0 |
| 20260509141133 | 60 | 174 | 0.0 | 0.0 | 0.00 | 0.00 | 0.00 | 84 | 1005.8 |
| 20260509140630 | 60 | 258 | 1.0 | 2.0 | 0.00 | 0.00 | 0.00 | 84 | 1005.9 |
| 20260509140128 | 60 | 241 | 0.0 | 0.0 | 0.00 | 0.00 | 0.00 | 84 | 1005.8 |
| 20260509135625 | 60 | 161 | 0.0 | 0.0 | 0.00 | 0.00 | 0.00 | 84 | 1005.7 |
| 20260509135123 | 60 | 265 | 0.0 | 2.0 | 0.00 | 0.00 | 0.00 | 84 | 1005.9 |
| 20260509134619 | 60 | 217 | 0.0 | 0.0 | 0.00 | 0.00 | 0.00 | 85 | 1005.7 |
| 20260509134117 | 60 | 177 | 0.0 | 0.0 | 0.00 | 0.00 | 0.00 | 84 | 1005.7 |
| 20260509133614 | 60 | 279 | 0.0 | 2.0 | 0.00 | 0.00 | 0.00 | 84 | 1005.5 |
| 20260509133111 | 60 | 152 | 0.0 | 0.0 | 0.00 | 0.00 | 0.00 | 87 | 1005.4 |
| 20260509132609 | 60 | 132 | 0.0 | 0.0 | 0.00 | 0.00 | 0.00 | 86 | 1005.4 |
| 20260509132107 | 60 | 191 | 0.0 | 0.0 | 0.00 | 0.00 | 0.00 | 86 | 1005.7 |
| 20260509131603 | 59 | 151 | 0.0 | 0.0 | 0.00 | 0.00 | 0.00 | 89 | 1005.6 |
| 20260509131100 | 60 | 198 | 0.0 | 0.0 | 0.00 | 0.00 | 0.00 | 89 | 1005.4 |
| 20260509130555 | 59 | 166 | 0.0 | 0.0 | 0.00 | 0.00 | 0.00 | 90 | 1005.6 |
| 20260509130053 | 59 | 160 | 0.0 | 0.0 | 0.00 | 0.00 | 0.00 | 91 | 1005.5 |
| 20260509125549 | 59 | 160 | 0.0 | 0.0 | 0.00 | 0.00 | 0.00 | 92 | 1005.4 |
| 20260509125046 | 58 | 143 | 0.0 | 0.0 | 0.00 | 0.00 | 0.00 | 94 | 1005.6 |
| 20260509124542 | 57 | 168 | 0.0 | 0.0 | 0.00 | 0.00 | 0.00 | 95 | 1005.5 |
| 20260509124040 | 57 | 168 | 0.0 | 0.0 | 0.00 | 0.00 | 0.00 | 97 | 1005.7 |
| 20260509123537 | 56 | 140 | 0.0 | 0.0 | 0.00 | 0.00 | 0.00 | 98 | 1005.7 |
| 20260509123033 | 55 | 167 | 0.0 | 0.0 | 0.00 | 0.00 | 0.00 | 99 | 1005.8 |
| 20260509122530 | 55 | 153 | 0.0 | 0.0 | 0.00 | 0.00 | 0.00 | 99 | 1005.9 |
| 20260509122027 | 55 | 155 | 0.0 | 0.0 | 0.00 | 0.00 | 0.00 | 99 | 1005.8 |
| 20260509121523 | 55 | 150 | 0.0 | 0.0 | 0.00 | 0.00 | 0.00 | 99 | 1005.9 |
| 20260509121021 | 54 | 193 | 0.0 | 0.0 | 0.00 | 0.00 | 0.00 | 99 | 1005.7 |
| 20260509120520 | 54 | 172 | 0.0 | 0.0 | 0.00 | 0.00 | 0.00 | 99 | 1005.8 |
| 20260509120017 | 54 | 159 | 0.0 | 0.0 | 0.00 | 0.00 | 0.00 | 99 | 1005.8 |
| 20260509115514 | 53 | 157 | 0.0 | 0.0 | 0.00 | 0.00 | 0.00 | 99 | 1005.9 |
| 20260509115012 | 53 | 170 | 0.0 | 0.0 | 0.00 | 0.00 | 0.00 | 99 | 1005.8 |
| 20260509114510 | 53 | 166 | 0.0 | 0.0 | 0.00 | 0.00 | 0.00 | 99 | 1005.6 |
| 20260509114009 | 53 | 160 | 0.0 | 0.0 | 0.00 | 0.00 | 0.00 | 99 | 1005.6 |
| 20260509113506 | 53 | 154 | 0.0 | 0.0 | 0.00 | 0.00 | 0.00 | 99 | 1005.6 |
| 20260509113004 | 52 | 160 | 0.0 | 0.0 | 0.00 | 0.00 | 0.00 | 99 | 1005.5 |
| 20260509112500 | 52 | 163 | 0.0 | 0.0 | 0.00 | 0.00 | 0.00 | 99 | 1005.3 |
| 20260509111956 | 52 | 167 | 0.0 | 0.0 | 0.00 | 0.00 | 0.00 | 99 | 1005.3 |
| 20260509111454 | 52 | 155 | 0.0 | 0.0 | 0.00 | 0.00 | 0.00 | 99 | 1005.5 |
| 20260509110951 | 52 | 155 | 0.0 | 0.0 | 0.00 | 0.00 | 0.00 | 99 | 1004.9 |
| 20260509110447 | 52 | 155 | 0.0 | 0.0 | 0.00 | 0.00 | 0.00 | 99 | 1005.2 |
| 20260509105945 | 52 | 155 | 0.0 | 0.0 | 0.00 | 0.00 | 0.00 | 99 | 1005.3 |
| 20260509105444 | 52 | 155 | 0.0 | 0.0 | 0.00 | 0.00 | 0.00 | 99 | 1005.2 |
| 20260509104940 | 52 | 160 | 0.0 | 0.0 | 0.00 | 0.00 | 0.00 | 99 | 1005.2 |
| 20260509104437 | 52 | 160 | 0.0 | 0.0 | 0.00 | 0.00 | 0.00 | 99 | 1005.3 |
| 20260509103934 | 51 | 161 | 0.0 | 0.0 | 0.00 | 0.00 | 0.00 | 99 | 1005.3 |
| 20260509103432 | 52 | 157 | 0.0 | 0.0 | 0.00 | 0.00 | 0.00 | 99 | 1005.3 |
| 20260509102930 | 52 | 160 | 0.0 | 0.0 | 0.00 | 0.00 | 0.00 | 99 | 1005.2 |
| 20260509102427 | 52 | 161 | 0.0 | 0.0 | 0.00 | 0.00 | 0.00 | 99 | 1005.2 |
| 20260509101923 | 52 | 161 | 0.0 | 0.0 | 0.00 | 0.00 | 0.00 | 99 | 1005.2 |
| 20260509101420 | 53 | 171 | 0.0 | 0.0 | 0.00 | 0.00 | 0.00 | 99 | 1005.4 |
| 20260509100917 | 53 | 163 | 0.0 | 0.0 | 0.00 | 0.00 | 0.00 | 99 | 1005.3 |
| 20260509100414 | 53 | 164 | 0.0 | 0.0 | 0.00 | 0.00 | 0.00 | 99 | 1005.3 |
| 20260509095910 | 53 | 220 | 0.0 | 0.0 | 0.00 | 0.00 | 0.00 | 99 | 1005.4 |
| 20260509095408 | 53 | 170 | 0.0 | 0.0 | 0.00 | 0.00 | 0.00 | 99 | 1005.2 |
| 20260509094905 | 53 | 165 | 0.0 | 0.0 | 0.00 | 0.00 | 0.00 | 99 | 1005.4 |
| 20260509094401 | 53 | 168 | 0.0 | 0.0 | 0.00 | 0.00 | 0.00 | 99 | 1005.2 |
| 20260509093859 | 53 | 166 | 0.0 | 0.0 | 0.00 | 0.00 | 0.00 | 99 | 1005.6 |
| 20260509093356 | 53 | 160 | 0.0 | 0.0 | 0.00 | 0.00 | 0.00 | 99 | 1005.4 |
| 20260509092855 | 53 | 171 | 0.0 | 0.0 | 0.00 | 0.00 | 0.00 | 99 | 1005.1 |
| 20260509092352 | 53 | 167 | 0.0 | 0.0 | 0.00 | 0.00 | 0.00 | 99 | 1005.4 |
| 20260509091850 | 53 | 160 | 0.0 | 0.0 | 0.00 | 0.00 | 0.00 | 99 | 1005.2 |
| 20260509091347 | 53 | 164 | 0.0 | 0.0 | 0.00 | 0.00 | 0.00 | 99 | 1005.4 |
| 20260509090844 | 53 | 160 | 0.0 | 0.0 | 0.00 | 0.00 | 0.00 | 99 | 1005.5 |
| 20260509090341 | 53 | 157 | 0.0 | 0.0 | 0.00 | 0.00 | 0.00 | 99 | 1005.1 |
| 20260509085838 | 53 | 160 | 0.0 | 0.0 | 0.00 | 0.00 | 0.00 | 99 | 1005.5 |
| 20260509085335 | 53 | 176 | 0.0 | 0.0 | 0.00 | 0.00 | 0.00 | 99 | 1005.4 |
| 20260509084832 | 53 | 159 | 0.0 | 0.0 | 0.00 | 0.00 | 0.00 | 99 | 1005.2 |
| 20260509084329 | 53 | 159 | 0.0 | 0.0 | 0.00 | 0.00 | 0.00 | 99 | 1005.4 |
| 20260509083827 | 53 | 170 | 0.0 | 0.0 | 0.00 | 0.00 | 0.00 | 99 | 1005.1 |
| 20260509083323 | 53 | 162 | 0.0 | 0.0 | 0.00 | 0.00 | 0.00 | 99 | 1005.2 |
| 20260509082820 | 53 | 159 | 0.0 | 0.0 | 0.00 | 0.00 | 0.00 | 99 | 1005.2 |
| 20260509082316 | 53 | 159 | 0.0 | 0.0 | 0.00 | 0.00 | 0.00 | 99 | 1005.2 |
| 20260509081814 | 53 | 155 | 0.0 | 0.0 | 0.00 | 0.00 | 0.00 | 99 | 1005.3 |
| 20260509081311 | 53 | 170 | 0.0 | 0.0 | 0.00 | 0.00 | 0.00 | 99 | 1004.9 |
| 20260509080809 | 53 | 161 | 0.0 | 0.0 | 0.00 | 0.00 | 0.00 | 99 | 1005.3 |
| 20260509080306 | 53 | 169 | 0.0 | 0.0 | 0.00 | 0.00 | 0.00 | 99 | 1005.3 |
| 20260509075805 | 53 | 169 | 0.0 | 0.0 | 0.00 | 0.00 | 0.00 | 99 | 1005.3 |
| 20260509075305 | 53 | 169 | 0.0 | 0.0 | 0.00 | 0.00 | 0.00 | 99 | 1005.4 |
| 20260509074758 | 53 | 161 | 0.0 | 0.0 | 0.00 | 0.00 | 0.00 | 99 | 1005.4 |
| 20260509074256 | 53 | 161 | 0.0 | 0.0 | 0.00 | 0.00 | 0.00 | 99 | 1005.6 |
| 20260509073752 | 53 | 171 | 0.0 | 0.0 | 0.00 | 0.00 | 0.00 | 99 | 1005.6 |
| 20260509073249 | 54 | 172 | 0.0 | 0.0 | 0.00 | 0.00 | 0.00 | 99 | 1005.7 |
| 20260509072745 | 53 | 178 | 0.0 | 0.0 | 0.00 | 0.00 | 0.00 | 99 | 1005.5 |
| 20260509072242 | 53 | 167 | 0.0 | 0.0 | 0.00 | 0.00 | 0.00 | 99 | 1005.7 |
| 20260509071739 | 53 | 178 | 0.0 | 0.0 | 0.00 | 0.00 | 0.00 | 99 | 1005.9 |
| 20260509071236 | 53 | 163 | 0.0 | 0.0 | 0.00 | 0.00 | 0.00 | 99 | 1005.8 |
| 20260509070733 | 53 | 158 | 0.0 | 0.0 | 0.00 | 0.00 | 0.00 | 99 | 1005.8 |
| 20260509070229 | 54 | 223 | 0.0 | 0.0 | 0.00 | 0.00 | 0.00 | 99 | 1005.9 |
| 20260509065726 | 54 | 177 | 0.0 | 0.0 | 0.00 | 0.00 | 0.00 | 99 | 1006.0 |
| 20260509065222 | 53 | 187 | 0.0 | 0.0 | 0.00 | 0.00 | 0.00 | 99 | 1006.3 |
| 20260509064718 | 53 | 157 | 0.0 | 0.0 | 0.00 | 0.00 | 0.00 | 99 | 1006.4 |
| 20260509064216 | 53 | 156 | 0.0 | 0.0 | 0.00 | 0.00 | 0.00 | 99 | 1006.3 |
| 20260509063713 | 53 | 180 | 0.0 | 0.0 | 0.00 | 0.00 | 0.00 | 99 | 1006.4 |
| 20260509063209 | 53 | 161 | 0.0 | 0.0 | 0.00 | 0.00 | 0.00 | 99 | 1006.5 |
| 20260509062707 | 53 | 210 | 0.0 | 0.0 | 0.00 | 0.00 | 0.00 | 99 | 1006.2 |
| 20260509062204 | 53 | 153 | 0.0 | 0.0 | 0.00 | 0.00 | 0.00 | 99 | 1006.5 |
| 20260509061701 | 53 | 167 | 0.0 | 0.0 | 0.00 | 0.00 | 0.00 | 99 | 1006.5 |
| 20260509061158 | 53 | 159 | 0.0 | 0.0 | 0.00 | 0.00 | 0.00 | 99 | 1006.6 |
| 20260509060655 | 53 | 161 | 0.0 | 0.0 | 0.00 | 0.00 | 0.00 | 99 | 1006.7 |
| 20260509060151 | 53 | 151 | 0.0 | 0.0 | 0.00 | 0.00 | 0.00 | 99 | 1006.8 |
| 20260509055647 | 53 | 159 | 0.0 | 0.0 | 0.00 | 0.00 | 0.00 | 99 | 1006.6 |
| 20260509055143 | 53 | 141 | 0.0 | 0.0 | 0.00 | 0.00 | 0.00 | 99 | 1006.8 |
| 20260509054640 | 53 | 166 | 0.0 | 0.0 | 0.00 | 0.00 | 0.00 | 99 | 1006.8 |
| 20260509054138 | 53 | 148 | 0.0 | 0.0 | 0.00 | 0.00 | 0.00 | 99 | 1006.8 |
| 20260509053636 | 53 | 176 | 0.0 | 0.0 | 0.00 | 0.00 | 0.00 | 99 | 1006.7 |
| 20260509053133 | 53 | 162 | 0.0 | 0.0 | 0.00 | 0.00 | 0.00 | 99 | 1006.9 |
| 20260509052631 | 53 | 151 | 0.0 | 0.0 | 0.00 | 0.00 | 0.00 | 99 | 1006.9 |
| 20260509052128 | 53 | 164 | 0.0 | 0.0 | 0.00 | 0.00 | 0.00 | 99 | 1006.8 |
| 20260509051626 | 53 | 164 | 0.0 | 0.0 | 0.00 | 0.00 | 0.00 | 99 | 1007.0 |
| 20260509051123 | 53 | 166 | 0.0 | 0.0 | 0.00 | 0.00 | 0.00 | 99 | 1006.9 |
| 20260509050620 | 53 | 161 | 0.0 | 0.0 | 0.00 | 0.00 | 0.00 | 99 | 1007.0 |
| 20260509050116 | 53 | 172 | 0.0 | 0.0 | 0.00 | 0.00 | 0.00 | 99 | 1006.7 |
| 20260509045614 | 53 | 159 | 0.0 | 0.0 | 0.00 | 0.00 | 0.00 | 99 | 1006.8 |
| 20260509045110 | 53 | 154 | 0.0 | 0.0 | 0.00 | 0.00 | 0.00 | 99 | 1006.8 |
| 20260509044608 | 53 | 167 | 0.0 | 0.0 | 0.00 | 0.00 | 0.00 | 99 | 1006.7 |
| 20260509044105 | 53 | 165 | 0.0 | 0.0 | 0.00 | 0.00 | 0.00 | 99 | 1006.8 |
| 20260509043601 | 53 | 144 | 0.0 | 0.0 | 0.00 | 0.00 | 0.00 | 99 | 1006.7 |
| 20260509043057 | 53 | 159 | 0.0 | 0.0 | 0.00 | 0.00 | 0.00 | 99 | 1006.8 |
| 20260509042553 | 53 | 163 | 0.0 | 0.0 | 0.00 | 0.00 | 0.00 | 99 | 1006.9 |
| 20260509042049 | 53 | 154 | 0.0 | 0.0 | 0.00 | 0.00 | 0.00 | 99 | 1006.9 |
| 20260509041546 | 53 | 175 | 0.0 | 0.0 | 0.00 | 0.00 | 0.00 | 99 | 1007.1 |
| 20260509041044 | 53 | 154 | 0.0 | 0.0 | 0.00 | 0.00 | 0.00 | 99 | 1006.7 |
| 20260509040542 | 53 | 166 | 0.0 | 0.0 | 0.00 | 0.00 | 0.00 | 99 | 1006.9 |
| 20260509040039 | 53 | 169 | 0.0 | 0.0 | 0.00 | 0.00 | 0.00 | 99 | 1006.9 |
| 20260509035536 | 53 | 173 | 0.0 | 0.0 | 0.00 | 0.00 | 0.00 | 99 | 1007.0 |
| 20260509035032 | 53 | 167 | 0.0 | 0.0 | 0.00 | 0.00 | 0.00 | 99 | 1006.7 |
| 20260509034531 | 53 | 160 | 0.0 | 0.0 | 0.00 | 0.00 | 0.00 | 99 | 1006.7 |
| 20260509034027 | 53 | 170 | 0.0 | 0.0 | 0.00 | 0.00 | 0.00 | 99 | 1006.8 |
| 20260509033524 | 53 | 174 | 0.0 | 0.0 | 0.00 | 0.00 | 0.00 | 99 | 1006.9 |
| 20260509033021 | 53 | 163 | 0.0 | 0.0 | 0.00 | 0.00 | 0.00 | 99 | 1006.9 |
| 20260509032518 | 53 | 159 | 0.0 | 0.0 | 0.00 | 0.00 | 0.00 | 99 | 1006.9 |
| 20260509032015 | 53 | 160 | 0.0 | 0.0 | 0.00 | 0.00 | 0.00 | 99 | 1006.8 |
| 20260509031513 | 53 | 160 | 0.0 | 0.0 | 0.00 | 0.00 | 0.00 | 99 | 1006.9 |
| 20260509031010 | 53 | 160 | 0.0 | 0.0 | 0.00 | 0.00 | 0.00 | 99 | 1006.8 |
| 20260509030508 | 53 | 159 | 0.0 | 0.0 | 0.00 | 0.00 | 0.00 | 99 | 1006.9 |
| 20260509030005 | 53 | 159 | 0.0 | 0.0 | 0.00 | 0.00 | 0.00 | 99 | 1007.1 |
| 20260509025500 | 53 | 156 | 0.0 | 0.0 | 0.00 | 0.00 | 0.00 | 99 | 1007.1 |
| 20260509024950 | 53 | 157 | 0.0 | 0.0 | 0.00 | 0.00 | 0.00 | 99 | 1007.1 |
| 20260509024447 | 53 | 161 | 0.0 | 0.0 | 0.00 | 0.00 | 0.00 | 99 | 1007.1 |
| 20260509023943 | 53 | 161 | 0.0 | 0.0 | 0.00 | 0.00 | 0.00 | 99 | 1007.1 |
| 20260509023441 | 54 | 161 | 0.0 | 0.0 | 0.00 | 0.00 | 0.00 | 99 | 1007.3 |
| 20260509022937 | 54 | 163 | 0.0 | 0.0 | 0.00 | 0.00 | 0.00 | 99 | 1007.0 |
| 20260509022435 | 54 | 156 | 0.0 | 0.0 | 0.00 | 0.00 | 0.00 | 99 | 1007.2 |
| 20260509021932 | 54 | 168 | 0.0 | 0.0 | 0.00 | 0.00 | 0.00 | 99 | 1007.4 |
| 20260509021428 | 54 | 164 | 0.0 | 0.0 | 0.00 | 0.00 | 0.00 | 99 | 1007.1 |
| 20260509020926 | 54 | 164 | 0.0 | 0.0 | 0.00 | 0.00 | 0.00 | 99 | 1007.1 |
| 20260509020424 | 54 | 171 | 0.0 | 0.0 | 0.00 | 0.00 | 0.00 | 99 | 1007.1 |
| 20260509015921 | 54 | 160 | 0.0 | 0.0 | 0.00 | 0.00 | 0.00 | 99 | 1007.0 |
| 20260509015420 | 54 | 159 | 0.0 | 0.0 | 0.00 | 0.00 | 0.00 | 99 | 1007.0 |
| 20260509014915 | 54 | 174 | 0.0 | 0.0 | 0.00 | 0.00 | 0.00 | 99 | 1007.1 |
| 20260509014407 | 54 | 179 | 0.0 | 0.0 | 0.00 | 0.00 | 0.00 | 99 | 1006.8 |
| 20260509013903 | 54 | 157 | 0.0 | 0.0 | 0.00 | 0.00 | 0.00 | 99 | 1006.9 |
| 20260509013401 | 54 | 156 | 0.0 | 0.0 | 0.00 | 0.00 | 0.00 | 99 | 1006.9 |
| 20260509012856 | 54 | 178 | 0.0 | 0.0 | 0.00 | 0.00 | 0.00 | 99 | 1007.1 |
| 20260509012353 | 54 | 177 | 0.0 | 0.0 | 0.00 | 0.00 | 0.00 | 99 | 1006.9 |
| 20260509011850 | 54 | 173 | 0.0 | 0.0 | 0.00 | 0.00 | 0.00 | 99 | 1006.8 |
| 20260509011348 | 54 | 170 | 0.0 | 0.0 | 0.00 | 0.00 | 0.00 | 99 | 1006.7 |
| 20260509010846 | 54 | 165 | 0.0 | 0.0 | 0.00 | 0.00 | 0.00 | 99 | 1006.8 |
| 20260509010343 | 54 | 170 | 0.0 | 0.0 | 0.00 | 0.00 | 0.00 | 99 | 1006.9 |
| 20260509005839 | 54 | 164 | 0.0 | 0.0 | 0.00 | 0.00 | 0.00 | 99 | 1007.1 |
| 20260509005337 | 54 | 162 | 0.0 | 0.0 | 0.00 | 0.00 | 0.00 | 99 | 1007.2 |
| 20260509004832 | 54 | 157 | 0.0 | 0.0 | 0.00 | 0.00 | 0.00 | 99 | 1006.9 |
| 20260509004328 | 54 | 147 | 0.0 | 0.0 | 0.00 | 0.00 | 0.00 | 99 | 1007.0 |
| 20260509003826 | 54 | 168 | 0.0 | 0.0 | 0.00 | 0.00 | 0.00 | 99 | 1007.0 |
| 20260509003324 | 54 | 165 | 0.0 | 0.0 | 0.00 | 0.00 | 0.00 | 99 | 1006.9 |
| 20260509002821 | 54 | 166 | 0.0 | 0.0 | 0.00 | 0.00 | 0.00 | 99 | 1006.9 |
| 20260509002318 | 54 | 169 | 0.0 | 0.0 | 0.00 | 0.00 | 0.00 | 99 | 1007.0 |
| 20260509001816 | 54 | 156 | 0.0 | 0.0 | 0.00 | 0.00 | 0.00 | 99 | 1006.9 |
| 20260509001311 | 54 | 156 | 0.0 | 0.0 | 0.00 | 0.00 | 0.00 | 99 | 1007.0 |
| 20260509000809 | 54 | 160 | 0.0 | 0.0 | 0.00 | 0.00 | 0.00 | 99 | 1007.2 |
| 20260509000307 | 54 | 161 | 0.0 | 0.0 | 0.00 | 0.00 | 0.00 | 99 | 1007.3 |
| 20260508235802 | 54 | 156 | 0.0 | 0.0 | 0.00 | 0.00 | 0.00 | 99 | 1007.3 |
| 20260508235259 | 54 | 157 | 0.0 | 0.0 | 0.00 | 0.00 | 0.00 | 99 | 1007.4 |
| 20260508234756 | 54 | 163 | 0.0 | 0.0 | 0.00 | 0.00 | 0.00 | 99 | 1007.3 |
| 20260508234253 | 54 | 169 | 0.0 | 0.0 | 0.00 | 0.00 | 0.00 | 99 | 1007.5 |
| 20260508233747 | 54 | 162 | 0.0 | 0.0 | 0.00 | 0.00 | 0.00 | 99 | 1007.3 |
| 20260508233245 | 54 | 160 | 0.0 | 0.0 | 0.00 | 0.00 | 0.00 | 99 | 1007.3 |
| 20260508232742 | 54 | 161 | 0.0 | 0.0 | 0.00 | 0.00 | 0.00 | 99 | 1007.4 |
| 20260508232238 | 54 | 165 | 0.0 | 0.0 | 0.00 | 0.00 | 0.00 | 99 | 1007.3 |
| 20260508231736 | 54 | 147 | 0.0 | 0.0 | 0.00 | 0.00 | 0.00 | 99 | 1007.3 |
| 20260508231232 | 54 | 215 | 0.0 | 0.0 | 0.00 | 0.00 | 0.00 | 99 | 1007.6 |
| 20260508230730 | 54 | 153 | 0.0 | 0.0 | 0.00 | 0.00 | 0.00 | 99 | 1007.4 |
| 20260508230225 | 54 | 160 | 0.0 | 0.0 | 0.00 | 0.00 | 0.00 | 99 | 1007.2 |
| 20260508225724 | 54 | 169 | 0.0 | 0.0 | 0.00 | 0.00 | 0.00 | 99 | 1007.4 |
| 20260508225220 | 54 | 167 | 0.0 | 0.0 | 0.00 | 0.00 | 0.00 | 99 | 1007.3 |
| 20260508224718 | 54 | 158 | 0.0 | 0.0 | 0.00 | 0.00 | 0.00 | 99 | 1007.5 |
| 20260508224215 | 55 | 157 | 0.0 | 0.0 | 0.00 | 0.00 | 0.00 | 99 | 1007.3 |